IQ1GE Weather Reports


Display with metric or nautical units.
time (UTC)temp
F
wind
direction
speed
MPH
gust
MPH
rain 1hr
in
rain 24hr
in
rain mn
in
humidity
%
barometer
mb
20240529043945 67 191 0.0 0.0 0.00 0.00 0.00 78 1016.2
20240529043445 67 191 0.0 0.0 0.00 0.00 0.00 78 1016.3
20240529042948 67 191 0.0 0.0 0.00 0.00 0.00 78 1016.3
20240529042448 67 191 0.0 0.0 0.00 0.00 0.00 77 1016.2
20240529041951 67 359 0.0 0.0 0.00 0.00 0.00 76 1016.1
20240529041446 67 359 0.0 0.0 0.00 0.00 0.00 77 1016.0
20240529040945 66 23 0.0 0.0 0.00 0.00 0.00 77 1016.1
20240529040451 66 359 0.0 0.0 0.00 0.00 0.00 77 1016.1
20240529035948 66 27 0.0 0.0 0.00 0.00 0.00 77 1016.1
20240529035448 66 359 0.0 0.0 0.00 0.00 0.00 78 1016.2
20240529035047 66 359 0.0 0.0 0.00 0.00 0.00 79 1016.3
20240529034836 66 359 0.0 0.0 0.00 0.00 0.00 81 1016.3
20240529033819 67 359 0.0 0.0 0.00 0.00 0.00 81 1016.2
20240529032320 67 359 0.0 0.0 0.00 0.00 0.00 81 1016.2
20240529030444 66 359 0.0 0.0 0.00 0.00 0.00 80 1016.0
20240529025106 67 37 0.0 0.0 0.00 0.00 0.00 84 1016.1
20240529023855 67 41 0.0 0.0 0.00 0.00 0.00 84 1016.2
20240529022529 67 359 0.0 0.0 0.00 0.00 0.00 83 1016.2
20240529021302 67 37 0.0 0.0 0.00 0.00 0.00 82 1016.2
20240529020608 68 359 0.0 0.0 0.00 0.00 0.00 82 1016.2
20240529014900 68 359 0.0 0.0 0.00 0.00 0.00 82 1016.2
20240529013734 67 359 0.0 0.0 0.00 0.00 0.00 81 1016.2
20240529012329 67 22 0.0 0.0 0.00 0.00 0.00 81 1016.2
20240529010843 67 87 0.0 0.0 0.00 0.00 0.00 82 1016.4
20240529005109 67 359 0.0 0.0 0.00 0.00 0.00 82 1016.6
20240529003855 67 359 0.0 0.0 0.00 0.00 0.00 83 1016.7
20240529002254 67 12 0.0 0.0 0.00 0.00 0.00 82 1017.0
20240529001037 67 10 0.0 0.0 0.00 0.00 0.00 83 1017.1
20240528235741 67 55 0.0 0.0 0.00 0.00 0.00 83 1017.2
20240528233644 67 54 0.0 0.0 0.00 0.00 0.00 84 1017.2
20240528231957 67 359 0.0 0.0 0.00 0.00 0.00 84 1017.1
20240528230755 67 359 0.0 0.0 0.00 0.00 0.00 84 1017.2
20240528225335 67 359 0.0 0.0 0.00 0.00 0.00 84 1017.2
20240528224026 68 359 0.0 0.0 0.00 0.00 0.00 84 1017.2
20240528223444 68 359 0.0 0.0 0.00 0.00 0.00 84 1017.1
20240528222946 68 359 0.0 0.0 0.00 0.00 0.00 84 1017.1
20240528222443 68 359 0.0 0.0 0.00 0.00 0.00 84 1017.1
20240528221943 68 359 0.0 0.0 0.00 0.00 0.00 84 1017.1
20240528221449 68 359 0.0 0.0 0.00 0.00 0.00 84 1017.1
20240528220943 68 359 0.0 0.0 0.00 0.00 0.00 84 1017.1
20240528220450 68 359 0.0 0.0 0.00 0.00 0.00 84 1017.0
20240528215944 68 359 0.0 0.0 0.00 0.00 0.00 84 1017.0
20240528215443 68 359 0.0 0.0 0.00 0.00 0.00 84 1017.0
20240528214946 68 359 0.0 0.0 0.00 0.00 0.00 84 1017.0
20240528214444 68 8 0.0 0.0 0.00 0.00 0.00 84 1017.0
20240528213943 68 359 0.0 0.0 0.00 0.00 0.00 84 1017.0
20240528213446 68 43 0.0 0.0 0.00 0.00 0.00 84 1017.0
20240528212943 68 359 0.0 0.0 0.00 0.00 0.00 83 1017.1
20240528212443 68 359 0.0 0.0 0.00 0.00 0.00 83 1017.1
20240528211943 68 359 0.0 0.0 0.00 0.00 0.00 82 1017.1
20240528211444 68 359 0.0 0.0 0.00 0.00 0.00 82 1017.1
20240528210946 68 359 0.0 0.0 0.00 0.00 0.00 82 1017.1
20240528210447 68 359 0.0 0.0 0.00 0.00 0.00 83 1017.0
20240528205943 68 345 0.0 0.0 0.00 0.00 0.00 83 1017.0
20240528205443 68 345 0.0 0.0 0.00 0.00 0.00 82 1016.9
20240528204946 68 345 0.0 0.0 0.00 0.00 0.00 82 1016.9
20240528204443 68 359 0.0 0.0 0.00 0.00 0.00 82 1016.9
20240528203949 68 359 0.0 0.0 0.00 0.00 0.00 82 1016.9
20240528203444 68 359 0.0 0.0 0.00 0.00 0.00 82 1016.9
20240528202943 68 359 0.0 0.0 0.00 0.00 0.00 81 1016.9
20240528202449 69 359 0.0 0.0 0.00 0.01 0.00 81 1016.8
20240528201943 69 359 0.0 0.0 0.00 0.01 0.00 81 1016.7
20240528201446 69 359 0.0 0.0 0.00 0.01 0.00 81 1016.8
20240528200943 69 359 0.0 0.0 0.00 0.01 0.00 81 1016.8
20240528200443 69 359 0.0 0.0 0.00 0.01 0.00 82 1016.8
20240528195943 69 359 0.0 0.0 0.00 0.01 0.00 82 1016.7
20240528195443 69 359 0.0 0.0 0.00 0.01 0.00 82 1016.7
20240528194943 69 359 0.0 0.0 0.00 0.01 0.00 82 1016.8
20240528194449 69 359 0.0 0.0 0.00 0.01 0.00 82 1016.6
20240528193943 69 359 0.0 0.0 0.00 0.01 0.00 82 1016.6
20240528193446 69 359 0.0 0.0 0.00 0.01 0.00 82 1016.6
20240528192947 69 359 0.0 0.0 0.00 0.01 0.00 82 1016.6
20240528192443 69 359 0.0 0.0 0.00 0.01 0.00 81 1016.5
20240528191946 69 359 0.0 0.0 0.00 0.01 0.00 81 1016.4
20240528191449 69 359 0.0 0.0 0.00 0.01 0.00 81 1016.4
20240528190943 70 359 0.0 0.0 0.00 0.01 0.00 81 1016.4
20240528190444 70 359 0.0 0.0 0.00 0.01 0.00 81 1016.4
20240528185949 70 359 0.0 0.0 0.00 0.01 0.00 80 1016.5
20240528185443 70 359 0.0 0.0 0.00 0.01 0.00 80 1016.5
20240528184943 70 359 0.0 0.0 0.00 0.01 0.00 79 1016.4
20240528184446 70 359 0.0 0.0 0.00 0.01 0.00 79 1016.4
20240528183943 70 359 0.0 0.0 0.00 0.01 0.00 79 1016.4
20240528183446 70 228 0.0 0.0 0.00 0.01 0.00 78 1016.3
20240528182946 70 359 0.0 0.0 0.00 0.01 0.00 78 1016.3
20240528182446 70 359 0.0 0.0 0.00 0.01 0.00 78 1016.4
20240528181943 70 359 0.0 0.0 0.00 0.01 0.00 78 1016.3
20240528181449 71 359 0.0 0.0 0.00 0.01 0.00 77 1016.3
20240528180946 71 212 0.0 0.0 0.00 0.01 0.00 76 1016.2
20240528180446 71 227 0.0 0.0 0.00 0.01 0.00 76 1016.2
20240528175943 71 222 0.0 0.0 0.00 0.01 0.00 77 1016.1
20240528175443 71 187 0.0 0.0 0.00 0.01 0.00 76 1016.2
20240528174943 71 241 0.0 0.0 0.00 0.01 0.00 77 1016.2
20240528174443 71 215 0.0 0.0 0.00 0.01 0.00 77 1016.0
20240528173946 71 237 0.0 0.0 0.00 0.01 0.00 76 1016.1
20240528173453 71 249 0.0 0.0 0.00 0.01 0.00 75 1016.1
20240528172943 71 232 0.0 0.0 0.00 0.01 0.00 75 1016.0
20240528172446 72 201 0.0 0.0 0.00 0.01 0.00 76 1016.0
20240528171946 71 212 0.0 0.0 0.00 0.01 0.00 76 1016.1
20240528171449 71 202 0.0 0.0 0.00 0.01 0.00 76 1016.0
20240528170952 72 224 0.0 0.0 0.00 0.01 0.00 75 1016.0
20240528170443 72 212 0.0 0.0 0.00 0.01 0.00 74 1016.0
20240528165943 72 194 0.0 0.0 0.00 0.01 0.00 74 1015.9
20240528165443 72 193 0.0 0.0 0.00 0.01 0.00 73 1016.0
20240528164943 72 179 0.0 0.0 0.00 0.01 0.00 73 1015.9
20240528164446 72 193 0.0 0.0 0.00 0.01 0.00 75 1015.9
20240528163943 72 209 0.0 0.0 0.00 0.01 0.00 74 1015.9
20240528163447 72 235 0.0 0.0 0.00 0.01 0.00 73 1015.8
20240528162943 73 243 0.0 0.0 0.00 0.01 0.00 73 1015.8
20240528162443 73 185 0.0 0.0 0.00 0.01 0.00 73 1015.8
20240528161943 72 210 0.0 0.0 0.00 0.01 0.00 74 1015.9
20240528161443 72 191 0.0 0.0 0.00 0.01 0.00 74 1015.8
20240528160946 72 219 0.0 0.0 0.00 0.01 0.00 75 1015.8
20240528160444 72 260 0.0 0.0 0.00 0.01 0.00 75 1015.8
20240528155943 72 341 0.0 0.0 0.00 0.01 0.00 74 1015.8
20240528155443 72 184 0.0 0.0 0.00 0.01 0.00 74 1015.9
20240528154949 72 248 0.0 0.0 0.00 0.01 0.00 75 1015.9
20240528154443 72 228 0.0 0.0 0.00 0.01 0.00 75 1016.0
20240528153949 72 199 0.0 0.0 0.00 0.01 0.00 75 1015.9
20240528153443 72 207 0.0 0.0 0.00 0.01 0.00 75 1016.0
20240528152943 72 237 0.0 0.0 0.00 0.01 0.00 75 1015.9
20240528152446 72 216 0.0 0.0 0.00 0.01 0.00 75 1016.0
20240528151946 72 214 0.0 0.0 0.00 0.01 0.00 75 1016.0
20240528151446 72 233 0.0 0.0 0.00 0.01 0.00 76 1016.1
20240528150943 72 312 0.0 0.0 0.00 0.01 0.00 76 1016.0
20240528150443 72 241 0.0 0.0 0.00 0.01 0.00 75 1016.2
20240528145943 72 192 0.0 0.0 0.00 0.01 0.00 74 1016.1
20240528145449 72 209 0.0 0.0 0.00 0.01 0.00 75 1016.2
20240528144943 72 231 0.0 0.0 0.00 0.01 0.00 76 1016.1
20240528144445 71 212 0.0 0.0 0.00 0.01 0.00 76 1016.1
20240528143946 72 231 0.0 0.0 0.00 0.01 0.00 75 1016.2
20240528143444 72 200 0.0 0.0 0.00 0.01 0.00 76 1016.2
20240528142943 72 218 0.0 0.0 0.00 0.01 0.00 74 1016.2
20240528142443 72 213 0.0 0.0 0.00 0.01 0.00 74 1016.2
20240528141943 72 233 0.0 0.0 0.00 0.01 0.00 74 1016.2
20240528141446 72 211 0.0 0.0 0.00 0.01 0.00 74 1016.2
20240528140943 72 208 0.0 0.0 0.00 0.01 0.00 73 1016.2
20240528140443 73 219 0.0 0.0 0.00 0.01 0.00 72 1016.3
20240528135943 73 199 0.0 0.0 0.00 0.01 0.00 71 1016.2
20240528135443 73 143 0.0 0.0 0.00 0.01 0.00 73 1016.3
20240528134949 72 223 0.0 0.0 0.00 0.01 0.00 73 1016.4
20240528134447 72 237 0.0 0.0 0.00 0.01 0.00 73 1016.3
20240528133949 73 218 0.0 0.0 0.00 0.01 0.00 70 1016.4
20240528133444 73 247 0.0 0.0 0.00 0.01 0.00 71 1016.4
20240528132947 73 216 0.0 0.0 0.00 0.01 0.00 71 1016.4
20240528132444 73 231 0.0 0.0 0.00 0.01 0.00 71 1016.3
20240528131947 73 204 0.0 0.0 0.00 0.01 0.00 71 1016.5
20240528131444 73 232 0.0 0.0 0.00 0.01 0.00 71 1016.5
20240528130946 73 236 0.0 0.0 0.00 0.01 0.00 73 1016.4
20240528130444 73 191 0.0 0.0 0.00 0.01 0.00 72 1016.5
20240528125950 73 182 0.0 0.0 0.00 0.01 0.00 72 1016.5
20240528125444 73 175 0.0 0.0 0.00 0.01 0.00 72 1016.6
20240528124947 73 191 0.0 0.0 0.00 0.01 0.00 73 1016.6
20240528124447 73 226 0.0 0.0 0.00 0.01 0.00 71 1016.6
20240528123944 73 186 0.0 0.0 0.00 0.01 0.00 72 1016.6
20240528123444 73 272 0.0 0.0 0.00 0.01 0.00 71 1016.7
20240528122947 73 187 0.0 0.0 0.00 0.01 0.00 71 1016.7
20240528122444 73 205 0.0 0.0 0.00 0.01 0.00 71 1016.8
20240528121947 73 228 0.0 0.0 0.00 0.01 0.00 70 1016.8
20240528121447 73 226 0.0 0.0 0.00 0.01 0.00 72 1016.7
20240528120947 73 268 0.0 0.0 0.00 0.01 0.00 71 1016.8
20240528120444 73 202 0.0 0.0 0.00 0.01 0.00 71 1016.9
20240528115947 72 228 0.0 0.0 0.00 0.01 0.00 71 1016.9
20240528115447 72 242 0.0 0.0 0.00 0.01 0.00 72 1017.0
20240528114944 72 218 0.0 0.0 0.00 0.01 0.00 72 1017.0
20240528114444 73 171 0.0 0.0 0.00 0.01 0.00 71 1017.0
20240528113944 73 199 0.0 0.0 0.00 0.01 0.00 71 1016.9
20240528113445 73 185 0.0 0.0 0.00 0.01 0.00 71 1016.9
20240528112944 72 214 0.0 0.0 0.00 0.01 0.00 71 1017.0
20240528112447 73 189 0.0 0.0 0.00 0.01 0.00 71 1016.9
20240528111944 72 164 0.0 0.0 0.00 0.01 0.00 72 1016.9
20240528111444 72 174 0.0 0.0 0.00 0.01 0.00 72 1017.0
20240528110947 72 166 0.0 0.0 0.00 0.01 0.00 72 1017.1
20240528110450 72 197 0.0 0.0 0.00 0.01 0.00 73 1017.1
20240528105954 72 288 0.0 0.0 0.00 0.01 0.00 75 1017.1
20240528105447 71 196 0.0 0.0 0.00 0.01 0.00 74 1017.1
20240528104951 71 204 0.0 0.0 0.00 0.01 0.00 73 1017.1
20240528104447 71 226 0.0 0.0 0.00 0.01 0.00 74 1017.0
20240528103944 71 212 0.0 0.0 0.00 0.01 0.00 74 1017.1
20240528103447 71 256 0.0 0.0 0.00 0.01 0.00 75 1017.2
20240528102951 71 187 0.0 0.0 0.00 0.01 0.00 75 1017.2
20240528102447 71 231 0.0 0.0 0.00 0.01 0.00 76 1017.3
20240528101947 70 232 0.0 0.0 0.00 0.01 0.00 75 1017.3
20240528101444 71 204 0.0 0.0 0.00 0.01 0.00 75 1017.4
20240528100944 71 236 0.0 0.0 0.00 0.01 0.00 75 1017.4
20240528100444 71 206 0.0 0.0 0.00 0.01 0.00 74 1017.3
20240528095947 71 172 0.0 0.0 0.00 0.01 0.00 74 1017.3
20240528095445 71 245 0.0 0.0 0.00 0.01 0.00 74 1017.3
20240528094944 71 198 0.0 0.0 0.00 0.01 0.00 75 1017.4
20240528094444 71 199 0.0 0.0 0.00 0.01 0.00 75 1017.3
20240528093944 71 242 0.0 0.0 0.00 0.01 0.00 74 1017.3
20240528093445 71 223 0.0 0.0 0.00 0.01 0.00 74 1017.3
20240528092948 71 187 0.0 0.0 0.00 0.01 0.00 73 1017.3
20240528092447 71 229 0.0 0.0 0.00 0.01 0.00 73 1017.2
20240528091951 71 198 0.0 0.0 0.00 0.01 0.00 73 1017.2
20240528091447 71 209 0.0 0.0 0.00 0.01 0.00 73 1017.3
20240528090947 71 245 0.0 0.0 0.00 0.01 0.00 73 1017.2
20240528090447 71 179 0.0 0.0 0.00 0.01 0.00 72 1017.2
20240528085944 71 197 0.0 0.0 0.00 0.01 0.00 72 1017.2
20240528085444 71 181 0.0 0.0 0.00 0.01 0.00 72 1017.1
20240528084944 71 206 0.0 0.0 0.00 0.01 0.00 72 1017.2
20240528084444 71 239 0.0 0.0 0.00 0.01 0.00 73 1017.2
20240528083944 71 226 0.0 0.0 0.00 0.01 0.00 74 1017.1
20240528083447 71 213 0.0 0.0 0.00 0.01 0.00 74 1017.1
20240528082947 70 235 0.0 0.0 0.00 0.01 0.00 74 1017.1
20240528082444 70 212 0.0 0.0 0.00 0.01 0.00 75 1017.2
20240528081944 70 218 0.0 0.0 0.00 0.01 0.00 76 1017.2
20240528081447 70 204 0.0 0.0 0.00 0.01 0.00 76 1017.2
20240528080944 70 359 0.0 0.0 0.00 0.01 0.00 76 1017.3
20240528080444 70 183 0.0 0.0 0.00 0.01 0.00 76 1017.2
20240528075947 70 206 0.0 0.0 0.00 0.01 0.00 78 1017.3
20240528075444 69 192 0.0 0.0 0.00 0.01 0.00 77 1017.3
20240528074944 69 175 0.0 0.0 0.00 0.01 0.00 76 1017.2
20240528074450 70 241 0.0 0.0 0.00 0.01 0.00 76 1017.2
20240528073944 70 221 0.0 0.0 0.00 0.01 0.00 75 1017.2
20240528073444 70 209 0.0 0.0 0.00 0.01 0.00 75 1017.1
20240528072950 70 213 0.0 0.0 0.00 0.01 0.00 74 1017.1
20240528072444 71 214 0.0 0.0 0.00 0.01 0.00 74 1017.1
20240528071947 70 214 0.0 0.0 0.00 0.01 0.00 75 1017.1
20240528071444 70 212 0.0 0.0 0.00 0.01 0.00 76 1017.1
20240528070947 70 212 0.0 0.0 0.00 0.01 0.00 76 1017.0
20240528070444 70 208 0.0 0.0 0.00 0.01 0.00 75 1017.0
20240528065944 70 46 0.0 0.0 0.00 0.01 0.00 76 1017.0
20240528065444 69 46 0.0 0.0 0.00 0.01 0.00 77 1017.0
20240528064950 69 46 0.0 0.0 0.00 0.01 0.00 77 1017.1
20240528064444 68 46 0.0 0.0 0.00 0.01 0.00 78 1017.1
20240528063944 68 25 0.0 0.0 0.00 0.01 0.00 78 1017.0
20240528063447 67 25 0.0 0.0 0.00 0.01 0.00 78 1017.0
20240528062947 67 32 0.0 0.0 0.00 0.01 0.00 78 1017.0
20240528062444 67 35 0.0 0.0 0.00 0.01 0.00 78 1017.0
20240528061944 66 23 0.0 0.0 0.00 0.01 0.00 80 1017.0
20240528061447 66 42 0.0 0.0 0.00 0.01 0.00 80 1016.9
20240528060947 66 25 0.0 0.0 0.00 0.01 0.00 81 1016.9
20240528060444 65 46 0.0 0.0 0.00 0.01 0.00 81 1016.9
20240528055947 65 26 0.0 0.0 0.00 0.01 0.00 82 1016.9
20240528055450 65 18 0.0 0.0 0.00 0.01 0.00 82 1016.9
20240528054944 64 359 0.0 0.0 0.00 0.01 0.00 83 1016.8
20240528054447 64 38 0.0 0.0 0.00 0.01 0.00 83 1016.9
20240528053944 63 23 0.0 0.0 0.00 0.01 0.00 84 1016.9
20240528053444 63 26 0.0 0.0 0.00 0.01 0.00 84 1016.9
20240528052947 63 359 0.0 0.0 0.00 0.01 0.00 84 1016.9
20240528052447 63 27 0.0 0.0 0.00 0.01 0.00 84 1016.8
20240528051944 63 24 0.0 0.0 0.00 0.01 0.00 84 1016.8
20240528051447 63 14 0.0 0.0 0.00 0.01 0.00 84 1016.9
20240528050953 63 22 0.0 0.0 0.00 0.01 0.00 85 1017.0
20240528050444 63 16 0.0 0.0 0.00 0.01 0.00 85 1017.0
20240528045944 63 49 0.0 0.0 0.00 0.01 0.00 85 1016.9
20240528045444 63 4 0.0 0.0 0.00 0.01 0.00 85 1016.9
20240528044945 63 13 0.0 0.0 0.00 0.01 0.00 85 1017.0
20240528044450 63 12 0.0 0.0 0.00 0.01 0.00 85 1017.0